Wind_Speed
19 31 27 30 32 31 29 28 25 22 19 16 13 15 18 20 21 22 24 25 25 22 24 24 24 25 24 25 25 26 29 31 28 22 23 22 20 17 15 17 19 20 19
16 29 31 31 30 30 29 28 25 23 19 16 15 18 21 22 24 25 26 26 25 23 24 25 25 25 25 26 28 31 33 30 29 28 21 21 21 19 19 19 17 16 15
7 18 24 27 32 31 28 27 25 22 20 16 18 21 23 25 26 26 26 26 26 24 24 24 25 24 25 25 27 30 27 25 25 27 18 21 21 19 18 18 17 17 14
20 22 25 25 28 31 28 26 25 22 20 18 22 24 26 27 27 26 26 25 25 25 24 23 23 24 24 26 28 29 28 29 24 22 13 14 19 18 18 16 16 16 15
17 23 23 24 25 29 28 26 23 21 20 22 24 26 28 28 27 26 25 25 24 24 24 22 22 22 23 24 25 24 22 21 16 9 13 14 17 16 13 14 16 16 15
24 24 24 26 26 26 26 25 24 21 21 24 26 28 30 29 27 27 26 24 23 23 23 21 20 20 21 23 23 21 19 21 18 8 16 17 17 15 15 14 14 13 13
20 12 23 23 25 24 26 25 24 23 25 27 28 30 30 29 28 27 26 24 23 22 21 19 19 19 19 20 20 21 22 24 9 7 11 17 16 16 15 15 14 13 12
22 19 28 28 26 32 31 27 24 25 26 27 30 31 30 28 27 26 24 23 22 21 19 18 17 17 17 18 19 20 19 18 12 10 9 16 14 14 15 14 13 13 11
23 23 30 24 31 31 28 26 26 27 27 30 31 30 29 27 26 25 23 22 20 19 17 15 15 14 15 17 20 20 19 16 12 9 6 16 12 12 14 14 13 12 11
17 32 29 19 21 24 26 26 26 28 28 29 29 28 27 26 24 23 22 20 18 16 14 13 13 12 12 16 18 17 15 15 11 1 5 14 12 11 12 13 12 11 12
14 16 19 31 27 25 25 28 28 27 27 29 28 26 25 24 23 21 20 18 15 14 12 11 11 11 15 15 16 13 11 12 7 7 9 13 9 8 9 11 11 10 10
27 24 34 34 30 32 32 31 31 31 30 28 28 26 23 21 18 18 17 15 13 11 11 10 14 13 10 12 8 6 10 12 3 7 8 11 6 6 7 9 10 8 10
32 31 33 32 33 36 35 34 35 32 33 30 27 24 20 18 14 16 13 11 11 9 9 12 10 9 6 7 1 2 6 7 3 6 9 10 5 4 7 8 6 6 9
25 36 37 36 38 35 36 34 32 32 33 33 29 23 19 16 13 10 8 11 12 9 8 8 7 6 6 2 4 7 5 0 7 5 8 8 6 4 5 5 5 6 6
21 28 36 38 36 40 40 35 36 39 32 31 27 20 13 12 10 11 9 8 9 8 8 11 6 5 3 2 6 4 4 5 5 5 8 9 7 6 6 7 7 7 4
21 25 27 34 40 42 40 40 35 36 33 29 22 19 13 11 10 11 12 8 11 13 8 6 5 5 5 3 3 2 3 2 2 7 4 9 9 5 9 9 9 8 6
19 21 29 36 33 38 36 36 37 30 32 31 26 14 14 14 13 12 15 15 13 11 11 12 11 11 7 4 2 2 4 4 5 4 3 5 8 5 4 10 10 10 9
19 20 28 27 35 35 34 33 37 32 30 27 23 16 20 20 14 16 13 15 15 16 17 15 11 7 8 6 7 4 5 6 9 4 4 6 1 3 7 8 12 15 17
20 27 29 30 27 33 34 22 30 23 26 28 22 18 22 21 15 17 17 14 18 17 12 11 13 9 9 8 8 8 9 8 10 4 10 8 10 1 3 8 10 12 16
17 26 26 30 30 38 31 22 19 21 24 26 19 20 25 20 18 19 16 19 21 15 16 16 14 15 12 9 9 10 16 13 10 9 9 7 9 10 9 8 9 9 10
20 26 32 29 25 24 21 25 23 24 23 32 24 22 19 18 21 21 20 23 20 17 17 15 19 18 15 15 11 6 17 18 16 12 10 10 8 13 9 14 13 11 12
31 32 32 30 30 33 25 24 23 26 24 25 29 24 23 19 21 21 20 23 19 19 20 22 20 16 12 14 10 8 5 11 16 12 12 13 13 14 14 14 13 13 15
28 33 32 28 24 24 23 19 23 20 17 22 17 21 22 21 22 23 20 24 22 19 23 25 21 18 13 16 14 8 3 4 10 13 16 16 15 17 17 12 15 17 18
35 31 30 30 29 29 26 28 28 26 27 26 22 20 19 20 24 24 22 24 24 22 25 26 21 20 20 16 12 13 10 13 6 6 12 15 17 19 18 15 15 15 13
38 37 33 31 32 31 29 30 28 26 25 25 27 27 24 24 27 27 27 29 27 26 25 24 23 20 23 20 14 11 10 14 13 13 17 13 15 18 15 14 15 16 14
37 40 40 36 35 36 27 26 24 27 25 23 21 23 27 29 30 27 28 32 29 29 27 30 26 26 23 20 19 15 12 15 11 11 16 17 17 17 13 12 15 17 18
Wind_Direction
152 159 158 161 163 160 158 155 151 145 137 130 127 128 125 122 119 118 116 113 111 111 106 101 94 89 86 85 83 82 77 70 63 70 78 82 81 79 74 65 75 71 66
142 155 160 163 166 164 161 158 153 147 139 136 135 132 128 125 122 120 119 117 116 111 106 100 94 90 87 86 87 85 78 76 65 44 60 73 73 72 70 68 70 73 74
274 155 155 159 168 168 165 160 155 148 145 144 140 134 130 127 125 125 122 118 117 111 105 100 96 92 89 86 90 86 81 79 79 70 36 57 63 63 64 62 66 69 68
179 172 163 164 172 169 166 163 157 151 151 148 143 137 133 131 130 128 124 120 116 112 107 102 97 91 88 89 94 94 88 80 83 88 67 54 67 68 61 61 61 56 58
173 172 169 165 172 168 167 164 159 158 155 151 143 140 135 134 133 130 128 124 119 114 110 104 96 92 88 93 96 94 93 96 90 72 90 65 63 65 63 58 62 63 61
164 172 168 164 165 167 171 167 165 164 159 152 145 142 139 137 135 134 132 127 123 118 112 106 97 91 87 94 100 90 85 93 96 27 55 58 55 55 51 51 52 51 52
185 186 176 168 171 173 178 174 169 167 162 152 147 145 142 139 136 134 134 130 125 122 116 107 98 93 86 88 105 97 91 84 61 37 21 46 53 50 47 46 47 49 50
180 195 177 178 187 173 175 172 171 166 159 153 150 149 144 139 135 135 133 131 128 123 118 107 101 93 85 83 93 102 88 86 74 35 24 35 46 53 51 50 47 46 48
191 192 177 182 184 170 168 173 167 162 157 153 154 150 141 139 137 136 134 131 129 122 116 108 100 92 82 78 88 99 91 84 91 75 359 17 39 49 48 49 46 51 48
169 145 156 176 146 160 165 166 164 160 155 156 153 148 143 140 138 135 135 133 129 120 116 109 98 89 80 74 89 88 82 71 51 328 333 2 24 39 40 41 48 49 41
170 208 185 191 177 168 175 159 162 160 164 157 151 147 142 136 134 142 139 135 131 122 116 112 98 92 68 62 76 70 78 86 53 323 330 349 12 24 25 27 33 42 40
163 183 184 178 172 165 173 164 166 158 154 153 146 139 133 133 147 140 140 137 135 131 123 111 96 81 65 54 69 70 78 71 37 320 330 343 6 2 4 12 18 25 19
168 178 175 178 168 162 161 162 154 154 156 147 136 139 147 149 139 144 137 139 148 154 137 113 98 103 128 186 79 50 96 104 132 314 319 345 343 333 326 338 6 6 358
167 161 180 184 179 172 155 153 155 160 157 150 154 152 162 153 132 146 172 173 170 168 148 105 162 184 175 155 42 17 46 86 134 312 322 329 305 212 266 301 319 318 333
171 170 165 176 177 170 161 157 161 155 166 165 159 150 169 166 171 182 190 185 151 178 150 192 216 178 151 91 20 12 55 67 124 222 304 316 339 262 229 257 282 280 292
173 176 172 160 161 160 162 157 155 153 160 161 153 152 170 174 209 172 189 200 183 213 183 213 190 135 157 306 13 29 77 66 331 169 265 314 322 307 232 228 228 244 251
170 176 163 161 156 161 165 163 150 148 160 153 150 174 186 190 216 199 212 199 205 186 192 200 194 194 221 228 293 314 360 0 291 291 119 302 305 323 270 218 224 225 235
146 162 160 147 165 161 155 151 165 168 167 179 182 211 212 206 226 212 210 201 203 206 209 217 215 188 202 207 242 247 252 303 304 288 215 171 287 277 286 277 243 253 256
144 144 146 150 152 165 176 149 156 163 191 199 205 214 222 222 217 220 212 222 212 220 200 208 193 202 229 224 256 257 289 285 283 232 230 243 220 289 248 268 276 271 264
156 146 150 141 142 149 151 178 174 190 202 197 214 226 214 207 222 230 220 215 224 208 213 213 215 204 216 220 216 262 278 283 288 262 271 238 244 237 251 291 284 292 284
175 156 159 161 169 179 184 181 184 189 198 204 225 215 229 225 217 234 205 232 235 207 225 227 212 224 218 233 253 298 271 260 267 269 254 245 238 265 269 238 256 274 284
177 164 163 163 172 180 192 194 202 203 214 224 229 229 233 224 220 231 213 237 242 213 220 221 228 229 219 255 244 270 299 242 248 260 241 257 245 244 247 271 283 237 247
192 181 177 189 193 193 192 188 205 215 221 221 230 228 226 221 216 227 221 227 243 212 226 231 233 214 227 241 256 261 270 264 308 270 232 240 248 269 276 249 251 266 273
194 200 200 195 199 203 203 204 205 205 210 214 214 218 236 232 229 230 233 232 234 223 225 240 238 227 220 221 241 269 274 262 292 292 252 258 249 255 273 272 264 244 259
196 202 204 205 210 214 213 203 208 208 217 223 227 220 225 229 240 234 224 235 234 237 236 237 238 230 229 231 232 231 261 281 284 277 283 287 267 268 279 259 258 250 250
206 204 208 206 209 214 220 210 213 220 219 224 230 230 226 239 247 249 240 240 242 238 234 224 229 236 240 235 250 256 237 243 252 268 273 279 277 276 275 275 249 252 254
Height
1477 1478 1487 1492 1494 1498 1501 1505 1511 1516 1520 1524 1527 1530 1533 1536 1539 1541 1544 1547 1549 1551 1552 1554 1555 1557 1558 1558 1560 1561 1561 1562 1562 1562 1562 1561 1562 1563 1563 1563 1563 1563 1564
1479 1482 1484 1491 1500 1502 1504 1508 1512 1517 1521 1525 1528 1532 1535 1538 1541 1545 1546 1549 1552 1554 1555 1556 1557 1559 1561 1563 1564 1564 1565 1565 1565 1564 1564 1564 1564 1565 1565 1565 1566 1566 1567
1493 1490 1493 1494 1498 1503 1508 1511 1514 1518 1522 1525 1530 1534 1537 1540 1543 1546 1549 1552 1554 1557 1559 1559 1560 1563 1565 1566 1567 1567 1568 1569 1569 1569 1568 1566 1567 1567 1567 1568 1567 1566 1568
1493 1498 1497 1497 1502 1504 1510 1514 1518 1520 1523 1527 1531 1536 1539 1542 1545 1549 1552 1555 1557 1558 1561 1563 1564 1565 1567 1569 1570 1570 1571 1572 1572 1573 1572 1570 1570 1570 1570 1570 1569 1569 1569
1491 1496 1498 1500 1505 1505 1511 1517 1521 1524 1525 1528 1534 1537 1540 1544 1548 1551 1555 1558 1559 1561 1563 1566 1566 1569 1569 1571 1572 1572 1573 1573 1573 1573 1573 1572 1572 1572 1572 1571 1571 1571 1570
1490 1494 1499 1499 1503 1507 1513 1519 1521 1526 1528 1530 1535 1539 1542 1546 1550 1553 1557 1560 1562 1564 1565 1569 1570 1571 1571 1573 1574 1574 1575 1576 1575 1574 1575 1575 1575 1574 1573 1572 1572 1573 1573
1487 1488 1495 1499 1504 1506 1510 1521 1524 1527 1530 1532 1537 1541 1544 1548 1552 1556 1559 1561 1564 1566 1568 1571 1572 1573 1574 1574 1575 1577 1577 1578 1576 1576 1578 1577 1576 1576 1575 1574 1574 1573 1574
1488 1493 1496 1496 1507 1506 1514 1520 1526 1530 1532 1537 1539 1543 1547 1551 1554 1558 1561 1564 1567 1568 1570 1572 1574 1575 1575 1576 1577 1578 1579 1581 1580 1577 1577 1577 1577 1576 1576 1576 1576 1576 1575
1487 1494 1497 1499 1507 1509 1515 1525 1527 1530 1533 1538 1543 1547 1550 1554 1557 1560 1563 1567 1570 1571 1573 1574 1575 1576 1577 1577 1578 1581 1581 1583 1584 1579 1576 1578 1578 1577 1577 1576 1578 1577 1577
1488 1489 1497 1505 1502 1515 1519 1525 1531 1532 1535 1540 1547 1551 1553 1557 1559 1562 1565 1569 1572 1573 1575 1575 1576 1577 1579 1579 1579 1582 1581 1584 1585 1581 1580 1580 1579 1579 1579 1578 1577 1578 1578
1491 1494 1492 1504 1506 1512 1524 1526 1530 1534 1539 1545 1549 1554 1556 1559 1561 1564 1568 1571 1574 1574 1576 1577 1577 1579 1580 1581 1581 1583 1582 1583 1584 1582 1581 1581 1579 1580 1580 1580 1580 1579 1579
1493 1498 1500 1505 1511 1516 1523 1527 1530 1532 1538 1546 1551 1554 1557 1560 1563 1566 1569 1572 1574 1576 1577 1578 1579 1579 1580 1582 1581 1581 1583 1583 1582 1582 1581 1582 1581 1579 1579 1579 1580 1581 1581
1494 1499 1501 1507 1511 1517 1521 1527 1529 1535 1538 1545 1552 1553 1557 1561 1565 1568 1571 1573 1576 1577 1577 1579 1580 1579 1581 1582 1582 1581 1582 1583 1583 1581 1580 1579 1580 1579 1579 1579 1579 1580 1581
1497 1498 1500 1505 1510 1517 1521 1525 1531 1537 1540 1546 1550 1554 1559 1563 1567 1570 1573 1574 1575 1578 1578 1578 1579 1580 1581 1581 1579 1580 1580 1581 1583 1580 1581 1581 1580 1580 1579 1578 1578 1580 1581
1496 1498 1499 1502 1506 1513 1519 1524 1530 1535 1545 1545 1551 1557 1561 1564 1568 1571 1572 1574 1575 1578 1578 1579 1579 1579 1580 1580 1580 1581 1580 1580 1581 1581 1579 1580 1579 1579 1579 1578 1577 1577 1580
1495 1498 1501 1502 1505 1512 1519 1524 1531 1534 1543 1548 1551 1558 1563 1566 1569 1571 1572 1575 1576 1577 1578 1578 1579 1580 1581 1579 1580 1580 1579 1579 1581 1581 1578 1578 1578 1579 1578 1576 1578 1576 1578
1498 1501 1502 1506 1513 1517 1522 1526 1534 1538 1545 1548 1555 1561 1564 1567 1569 1570 1572 1574 1575 1577 1579 1578 1578 1578 1579 1579 1578 1580 1580 1577 1579 1579 1577 1577 1578 1576 1577 1577 1575 1574 1576
1501 1504 1507 1508 1514 1520 1528 1532 1536 1540 1550 1556 1558 1561 1563 1566 1567 1569 1570 1573 1574 1575 1576 1577 1578 1577 1578 1578 1577 1579 1579 1576 1578 1577 1576 1576 1575 1575 1575 1576 1573 1573 1573
1504 1507 1510 1513 1515 1520 1529 1536 1541 1546 1553 1555 1557 1560 1561 1564 1564 1566 1568 1570 1571 1573 1574 1575 1577 1576 1576 1577 1577 1575 1575 1575 1575 1575 1574 1573 1574 1573 1573 1574 1571 1571 1571
1506 1509 1512 1516 1520 1524 1531 1536 1540 1546 1550 1553 1554 1555 1556 1559 1562 1564 1566 1567 1569 1571 1571 1572 1573 1573 1575 1576 1577 1574 1573 1573 1573 1571 1570 1570 1570 1571 1572 1571 1569 1569 1569
1508 1511 1514 1517 1522 1526 1531 1536 1540 1542 1546 1548 1551 1552 1553 1557 1559 1561 1562 1563 1566 1567 1567 1569 1569 1570 1571 1572 1573 1571 1569 1570 1569 1568 1566 1567 1567 1566 1569 1569 1567 1566 1565
1507 1510 1514 1518 1522 1526 1530 1534 1538 1540 1543 1547 1548 1549 1551 1553 1555 1557 1560 1558 1561 1563 1564 1565 1564 1567 1569 1568 1569 1569 1568 1568 1564 1564 1563 1563 1564 1563 1565 1564 1564 1564 1563
1506 1509 1512 1517 1521 1524 1528 1531 1535 1539 1541 1543 1545 1546 1549 1549 1552 1552 1555 1556 1557 1560 1560 1559 1561 1564 1565 1566 1566 1567 1565 1565 1562 1558 1559 1560 1560 1560 1561 1561 1560 1559 1559
1502 1506 1510 1514 1518 1521 1524 1527 1530 1533 1535 1536 1539 1542 1544 1546 1547 1548 1550 1552 1553 1555 1555 1556 1558 1559 1562 1562 1563 1562 1563 1563 1561 1562 1558 1557 1557 1556 1555 1556 1556 1556 1556
1497 1499 1504 1509 1512 1515 1520 1523 1526 1528 1531 1534 1535 1537 1539 1540 1541 1544 1546 1547 1548 1549 1550 1550 1553 1554 1556 1557 1558 1558 1559 1559 1559 1559 1559 1557 1555 1553 1551 1549 1549 1550 1551
1488 1494 1499 1503 1507 1511 1515 1520 1524 1528 1528 1527 1531 1533 1533 1534 1536 1538 1541 1542 1544 1545 1545 1547 1548 1548 1551 1552 1552 1553 1552 1554 1555 1554 1555 1553 1553 1554 1552 1549 1545 1544 1545